Regional Weather Roundup
Issued by NWS Northern Indiana

Home | Current Version | Previous Version | Graphics & Text | Print | Product List | Glossary On
Versions: 1 2 3 4 5 6 7 8 9 10 11 12 13 14 15 16 17 18 19 20 21 22 23 24 25 26 27 28 29 30 31 32 33 34 35 36 37 38 39 40 41 42 43 44 45 46 47 48 49 50
651
ASUS43 KIWX 181410
RWRIWX

KIWX WEATHER ROUNDUP
NATIONAL WEATHER SERVICE NORTHERN INDIANA
900 AM EST MON DEC 18 2017

NOTE: "FAIR" INDICATES FEW OR NO CLOUDS BELOW 12,000 FEET WITH NO
SIGNIFICANT WEATHER AND/OR OBSTRUCTIONS TO VISIBILITY.

* THESE STATIONS ARE NOT UNDER NWS QUALITY CONTROL. THEY ALSO MAY NOT
  REPORT WEATHER SUCH AS PRECIPITATION OR FOG.

INZ001>027-181500-
NORTHERN INDIANA

CITY           SKY/WX    TMP DP  RH WIND       PRES   REMARKS
GARY*          CLOUDY    45  43  93 SW10      29.95F FOG
VALPARAISO     CLOUDY    44  42  93 SW10      29.97S FOG
MICHIGAN CITY* CLOUDY    41  41 100 SW9       29.96S
LAPORTE*       CLOUDY    40  40  99 SW7       29.96S FOG
KNOX*          CLOUDY    41  41 100 SW9       29.97S
SOUTH BEND     FOG       39  39 100 SW10      29.96S VSB 1/4
ELKHART*       DRZL/FOG  39  39 100 SW8       29.95S VSB 1
GOSHEN         FOG       41  40  96 SW13      29.96S VSB 1
MONTICELLO*    CLOUDY    42  41  95 SW10      30.00S FOG
LOGANSPORT*    CLOUDY    41  41 100 SW9       30.02R FOG
ROCHESTER*     CLOUDY    43  43 100 SW10G16   30.00R FOG
WARSAW*        LGT RAIN  41  41 100 SW9       29.98R
AUBURN*        CLOUDY    41  37  87 SW6       29.98S FOG
FORT WAYNE     LGT RAIN  41  40  96 SW13      29.99S FOG
HUNTINGTON*    CLOUDY    40  39  95 SW6       30.00S FOG
PERU/GRISSOM   LGT RAIN  42  42 100 SW13      30.00S FOG
MARION*        CLOUDY    40  40  97 SW13      30.03R FOG

$$
INZ028>050-181500-
CENTRAL INDIANA

CITY           SKY/WX    TMP DP  RH WIND       PRES   REMARKS
LAFAYETTE      CLOUDY    43  43 100 SW7       30.02S FOG
KOKOMO*        CLOUDY    42  41  96 SW14      30.02S FOG
MUNCIE*        CLOUDY    42  40  92 SW10      30.03R FOG
INDIANAPOLIS   CLOUDY    43  41  93 SW13      30.06R FOG

$$
MIZ043>046-050>051-056>058-064>065-071>073-077>080-181500-
SOUTHWEST LOWER MICHIGAN

CITY           SKY/WX    TMP DP  RH WIND       PRES   REMARKS
BATTLE CREEK   LGT RAIN  38  37  97 SW10      29.91F FOG
BENTON HARBOR  CLOUDY    41  39  93 SW16      29.93S FOG
COLDWATER*     CLOUDY    38  38 100 SW8       29.94S FOG
HILLSDALE*     CLOUDY    36  36 100 S8        29.93S FOG
HOLLAND        LGT RAIN  40  38  93 W13       29.90S FOG
GRAND RAPIDS   DRZL/FOG  37  37 100 SW12      29.88F VSB 1
KALAMAZOO      LGT RAIN  39  37  92 SW12      29.92F FOG
STURGIS*       DRZL/FOG  39  38  97 SW10      29.94S VSB 1
THREE RIVERS*  DRZL/FOG  39  39  99 SW7       29.94F VSB 3/4

$$
OHZ001>008-015>018-024>025-181500-
NORTHWEST OHIO

CITY           SKY/WX    TMP DP  RH WIND       PRES   REMARKS
WAUSEON*       CLOUDY    39  39 100 SW10      29.97S FOG
DEFIANCE       LGT RAIN  39  37  92 SW9       29.99S FOG
FINDLAY        CLOUDY    40  36  86 SW12      30.00R FOG
TOLEDO EXPRESS CLOUDY    39  38  96 S8        29.99R FOG
TOLEDO METCALF CLOUDY    40  36  86 SW13      30.00S FOG
LIMA           FOG       38  38 100 SW10      30.01S VSB 1/4

$$
AND FOR LAKE MICHIGAN COASTAL AND OPEN LAKE BUOY OBSERVATIONS

STATION/POSITION TEMP    WIND        PRES    VSBY  WAVE
                 AIR SEA DIR/SP/G                  HT/PER
                 (F)     (DEG/KT/KT) (MB)    (MI)  (FT/S)
CALUMET HARBOR    43     210/  6/ 10 1013.4R
MICHIGAN CITY     43     200/ 14/ 15   N/A
BURNS HARBOR      43     210/ 11/ 13 1014.9S
SAINT JOSEPH      40     220/ 12/ 16 1013.9

$$
&&




USA.gov is the U.S. government's official web portal to all federal, state and local government web resources and services.